Regional Weather Roundup
Issued by NWS

Home | Current Version | Previous Version | Text Only | Print | Product List | Glossary On
Versions: 1 2 3 4 5 6 7 8 9 10 11 12 13 14 15 16 17 18 19 20 21 22 23 24 25 26 27 28 29 30 31 32 33 34 35 36 37 38 39 40 41 42 43 44 45 46 47 48 49 50
000
ASUS43 KTOP 301108
RWRKS

WEATHER ROUNDUP FOR KANSAS
NATIONAL WEATHER SERVICE GOODLAND KS
600 AM CDT TUE SEP 30 2014

NOTE:  "FAIR" INDICATES FEW OR NO CLOUDS BELOW 12,000 FEET WITH NO
SIGNIFICANT WEATHER AND/OR OBSTRUCTIONS TO VISIBILITY.

KSZ001>006-013>018-027>032-041>047-301200-
NORTHWEST KANSAS

CITY           SKY/WX    TMP DP  RH WIND       PRES   REMARKS
GOODLAND       MOCLDY    48  45  89 SW7       29.86F
HAYS           CLOUDY    63  55  77 S10       29.86R
HILL CITY      PTCLDY    64  59  83 SW8       29.83R
RUSSELL        RAIN      64  58  80 S13       29.85S
$$

KSZ061>065-074>080-084>089-301200-
SOUTHWEST KANSAS

CITY           SKY/WX    TMP DP  RH WIND       PRES   REMARKS
DODGE CITY     MOCLDY    64  54  69 S13       29.86S
ELKHART          N/A     59  53  80 S12         N/A
GARDEN CITY    TSTM      63  59  87 SW6       29.85F FOG
GREAT BEND     CLOUDY    66  55  68 S12       29.86S
LIBERAL        PTCLDY    63  55  77 S10       29.87F
PRATT          CLOUDY    64  54  68 S10       29.89S
$$

KSZ066>073-081>083-090>101-301200-
SOUTHEAST KANSAS

CITY           SKY/WX    TMP DP  RH WIND       PRES   REMARKS
CHANUTE        PTCLDY    61  59  93 SE8       29.92F
COFFEYVILLE    CLEAR     57  56  96 E5        29.92F
HUTCHINSON     CLOUDY    67  57  70 S8        29.88F
MEDICINE LODGE   N/A     65  56  72 SE7       29.87F
NEWTON         PTCLDY    61  54  77 SE8       29.93S
PARSONS        CLEAR     57  57 100 E3        29.93F
WICHITA INTL   MOCLDY    63  57  81 S8        29.90S
WICHITA JABRA  PTCLDY    62  57  83 S5        29.91S
WICHITA MCCONL CLEAR     65  60  86 SE8       29.91S
WINFIELD       CLEAR     63  59  87 S8        29.92S
$$

KSZ007>012-019>026-033>040-048>060-102>105-301200-
NORTHEAST KANSAS

CITY           SKY/WX    TMP DP  RH WIND       PRES   REMARKS
CONCORDIA      MOCLDY    68  58  70 S17G25    29.84F
EMPORIA        CLEAR     60  58  92 S8        29.92S
LAWRENCE       PTCLDY    57  55  93 CALM      29.92S
MANHATTAN      PTCLDY    63  58  83 CALM      29.89S
MARYSVILLE     MOCLDY    63  59  88 SE3       29.88F
OLATHE IND     PTCLDY    60  57  89 S6        29.93S
OLATHE EXE     PTCLDY    63  58  83 SE5       29.92F
SALINA         MOCLDY    68  58  70 S8        29.87F
TOPEKA BILLARD PTCLDY    62  59  90 CALM      29.91S
TOPEKA FORBES  CLEAR     60  57  89 CALM      29.92R
$$



USA.gov is the U.S. government's official web portal to all federal, state and local government web resources and services.